Location: Te Maire Creek
(41.1333°S, 175.9167°E)
Time: 21:49:48
(UTC+00:00)

USA 59 Rocket - Pass Details

Date: 19 May 2024
Orbit: 383 x 1743 km, 63.3° (Epoch: 21 June)

Event Time Altitude Azimuth Distance (km) Brightness Sun altitude
Exits shadow 14:05:06 23° 108° (ESE) 3,102 3.8 -58.1°
Drops below altitude 10° 14:09:39 10° 129° (SE) 4,071 4.6 -57.4°
Sets 14:13:28 0° 138° (SE) 5,062 5.2 -56.8°
